User: anonymous   Login
Location: Unspecified
(0.0000°N, 0.0000°E)
Time: 20:52:59
(UTC+00:00)
Language:

NOSS 8 (H) - Orbit

View from above orbital plane
View from above orbital plane
View from above satellite
View from above satellite

Ground track
Ground track

The orbit data is extracted from the following two-line orbital elements,

1 18025U 87043H   18121.84017576 0.00000900  00000-0  11666-3 0    04
2 18025  63.3232  13.9919 0884637  47.0544 312.9456 13.44836744    03
Epoch (UTC): 01 May 2018 20:09:51
Eccentricity: 0.0884637
inclination: 63.3232°
perigee height: 430 km
apogee height: 1752 km
right ascension of ascending node: 13.9919°
argument of perigee: 47.0544°
revolutions per day: 13.44836744
mean anomaly at epoch: 312.9456°
orbit number at epoch: 0

The dashed part of the orbit path shows where the satellite is in the earth's shadow,  

DLR